This is the latest recevied weather packets stored in our database for station/object WB5TZJ. If no packets are shown the sender has not sent any weather packets the latest 10 day(s).
| Time | Temp. | Humidity | Pressure | Rain* | Wind** | Luminosity | Snow |
|---|---|---|---|---|---|---|---|
| 1777678245 | 22.22° C | 46% | 1011.8 hPa | 0 mm | - | - | - |
| 1777677645 | 22.78° C | 46% | 1011.8 hPa | 0 mm | - | - | - |
| 1777677045 | 22.78° C | 47% | 1011.8 hPa | 0 mm | - | - | - |
| 1777676445 | 22.78° C | 52% | 1011.5 hPa | 0 mm | - | - | - |
| 1777675845 | 22.22° C | 48% | 1011.5 hPa | 0 mm | - | - | - |
| 1777675245 | 22.78° C | 48% | 1011.5 hPa | 0 mm | - | - | - |
| 1777674646 | 22.78° C | 49% | 1011.1 hPa | 0 mm | - | - | - |
| 1777674046 | 22.78° C | 47% | 1011.1 hPa | 0 mm | - | - | - |
| 1777673445 | 22.78° C | 50% | 1011.1 hPa | 0 mm | - | - | - |
| 1777672846 | 22.22° C | 50% | 1010.8 hPa | 0 mm | - | - | - |
| 1777672246 | 22.22° C | 47% | 1010.8 hPa | 0 mm | - | - | - |
| 1777671645 | 22.22° C | 47% | 1010.8 hPa | 0 mm | - | - | - |
| 1777671045 | 22.78° C | 46% | 1010.8 hPa | 0 mm | - | - | - |
| 1777670445 | 22.78° C | 51% | 1010.8 hPa | 0 mm | - | - | - |
| 1777669846 | 22.22° C | 51% | 1010.8 hPa | 0 mm | - | - | - |
| 1777669246 | 22.22° C | 47% | 1010.8 hPa | 0 mm | - | - | - |
| 1777668645 | 22.22° C | 49% | 1010.8 hPa | 0 mm | - | - | - |
| 1777668046 | 22.78° C | 48% | 1011.1 hPa | 0 mm | - | - | - |
| 1777667446 | 22.78° C | 45% | 1011.5 hPa | 0 mm | - | - | - |
| 1777666846 | 22.78° C | 47% | 1011.8 hPa | 0 mm | - | - | - |
| 1777666246 | 22.78° C | 51% | 1011.8 hPa | 0 mm | - | - | - |
| 1777665646 | 22.78° C | 48% | 1011.8 hPa | 0 mm | - | - | - |
| 1777665046 | 22.78° C | 45% | 1011.8 hPa | 0 mm | - | - | - |
| 1777664446 | 22.78° C | 46% | 1012.1 hPa | 0 mm | - | - | - |
| 1777663846 | 22.78° C | 47% | 1012.1 hPa | 0 mm | - | - | - |
* Rain latest hour (hover to see other rain measurements)
** Current wind speed in m/s (hover to see current wind gust speed)